Location: Castillon
(43.0896°N, 0.2156°E)
Time: 15:13:55
(UTC+00:00)

Cosmos 1536 Rocket - Pass Details

Date: 16 June 2021
Orbit: 604 x 633 km, 82.5° (Epoch: 01 August)

Event Time Altitude Azimuth Distance (km) Brightness Sun altitude
Exits shadow 22:35:22 29° 222° (SW) 1,155 4.7 -20.7°
Maximum altitude 22:37:18 50° 282° (WNW) 809 4.3 -20.9°
Drops below altitude 10° 22:41:40 10° 358° (N) 2,017 7.2 -21.1°
Sets 22:43:58 0° 4° (N) 2,925 8.2 -21.3°
